Location: Pedholt
(56.0260°N, 10.2097°E)
Time: 06:39:31
(UTC+00:00)

S-56A Canister/Altair - Pass Details

Date: 02 August 2021
Orbit: 632 x 2500 km, 38.9° (Epoch: 25 September)

Event Time Altitude Azimuth Distance (km) Brightness Sun altitude
Rises 20:48:49 0° 275° (W) 6,175 12.8 -9.4°
Reaches altitude 10° 20:57:42 10° 246° (WSW) 4,974 11.8 -10.1°
Maximum altitude 21:00:45 11° 234° (SW) 4,771 11.6 -10.4°
Drops below altitude 10° 21:03:41 10° 221° (SW) 4,717 11.4 -10.6°
Sets 21:11:14 0° 190° (S) 5,253 11.4 -11.2°
